• In Deutschland
  • Länderverzeichnis
  • Für 7 Tage
  • Wassertemperatur
  • Satellitenkarten
  • Wetterkarte
  • Widgets
  • user-avatar
    Anmelden

    Stündliche Wetter Bautzen

    Heute, 24 September, Montag

    Zeit Temperatur Niederschläge Wind Luftdruck Luftfeuchtigkeit
    00:00 +8°C° 0.7 mm 7 m/S 741 mmHg 90%
    01:00 +7°C° 0 mm 5 m/S 743 mmHg 88%
    02:00 +7°C° 0 mm 6 m/S 744 mmHg 88%
    03:00 +7°C° 0 mm 6 m/S 745 mmHg 88%
    04:00 +5°C° 0 mm 7 m/S 746 mmHg 88%
    05:00 +5°C° 0 mm 7 m/S 746 mmHg 87%
    06:00 +5°C° 0 mm 7 m/S 747 mmHg 86%
    07:00 +5°C° 0 mm 6 m/S 747 mmHg 86%
    08:00 +6°C° 0.1 mm 7 m/S 748 mmHg 80%
    09:00 +7°C° 0.1 mm 8 m/S 749 mmHg 75%
    10:00 +8°C° 0.1 mm 9 m/S 749 mmHg 69%
    11:00 +10°C° 0.2 mm 9 m/S 749 mmHg 65%
    12:00 +10°C° 0.2 mm 9 m/S 750 mmHg 60%
    13:00 +11°C° 0.2 mm 9 m/S 750 mmHg 56%
    14:00 +11°C° 0.2 mm 8 m/S 750 mmHg 57%
    15:00 +10°C° 0.2 mm 8 m/S 751 mmHg 57%
    16:00 +10°C° 0.2 mm 7 m/S 751 mmHg 58%
    17:00 +9°C° 0.2 mm 6 m/S 751 mmHg 63%
    18:00 +8°C° 0.2 mm 5 m/S 752 mmHg 68%
    19:00 +7°C° 0.2 mm 4 m/S 752 mmHg 74%
    20:00 +7°C° 0.2 mm 4 m/S 753 mmHg 75%
    21:00 +6°C° 0.2 mm 4 m/S 753 mmHg 77%
    22:00 +6°C° 0.2 mm 4 m/S 754 mmHg 78%
    23:00 +5°C° 0 mm 4 m/S 754 mmHg 79%

    Morgen, 25 September, Dienstag

    Zeit Temperatur Niederschläge Wind Luftdruck Luftfeuchtigkeit
    00:00 +5°C° 0 mm 4 m/S 755 mmHg 80%
    01:00 +4°C° 0 mm 4 m/S 755 mmHg 81%
    02:00 +4°C° 0 mm 4 m/S 755 mmHg 82%
    03:00 +4°C° 0 mm 4 m/S 756 mmHg 84%
    04:00 +3°C° 0 mm 3 m/S 756 mmHg 85%
    05:00 +3°C° 0 mm 3 m/S 757 mmHg 85%
    06:00 +3°C° 0 mm 3 m/S 757 mmHg 85%
    07:00 +4°C° 0 mm 3 m/S 758 mmHg 85%
    08:00 +5°C° 0 mm 4 m/S 758 mmHg 78%
    09:00 +7°C° 0 mm 4 m/S 759 mmHg 71%
    10:00 +10°C° 0 mm 4 m/S 759 mmHg 64%
    11:00 +11°C° 0 mm 4 m/S 759 mmHg 58%
    12:00 +12°C° 0 mm 3 m/S 759 mmHg 53%
    13:00 +13°C° 0 mm 3 m/S 759 mmHg 47%
    14:00 +12°C° 0 mm 3 m/S 759 mmHg 48%
    15:00 +12°C° 0 mm 3 m/S 759 mmHg 48%
    16:00 +12°C° 0 mm 3 m/S 759 mmHg 49%
    17:00 +12°C° 0 mm 2 m/S 760 mmHg 54%
    18:00 +9°C° 0 mm 2 m/S 760 mmHg 59%
    19:00 +9°C° 0 mm 1 m/S 760 mmHg 64%
    20:00 +8°C° 0 mm 1 m/S 760 mmHg 65%
    21:00 +8°C° 0 mm 1 m/S 760 mmHg 67%
    22:00 +7°C° 0 mm 1 m/S 761 mmHg 69%
    23:00 +7°C° 0 mm 1 m/S 760 mmHg 69%

    übermorgen, 26 September, Mittwoch

    Zeit Temperatur Niederschläge Wind Luftdruck Luftfeuchtigkeit
    00:00 +7°C° 0 mm 1 m/S 760 mmHg 70%
    01:00 +6°C° 0 mm 1 m/S 760 mmHg 70%
    02:00 +6°C° 0 mm 1 m/S 760 mmHg 71%
    03:00 +5°C° 0 mm 2 m/S 760 mmHg 72%
    04:00 +5°C° 0 mm 2 m/S 760 mmHg 73%
    05:00 +5°C° 0 mm 2 m/S 760 mmHg 72%
    06:00 +5°C° 0 mm 2 m/S 759 mmHg 72%
    07:00 +6°C° 0 mm 2 m/S 759 mmHg 72%
    08:00 +8°C° 0 mm 3 m/S 759 mmHg 64%
    09:00 +10°C° 0 mm 3 m/S 759 mmHg 57%
    10:00 +12°C° 0 mm 4 m/S 759 mmHg 50%
    11:00 +13°C° 0 mm 4 m/S 759 mmHg 47%
    12:00 +14°C° 0 mm 4 m/S 758 mmHg 43%
    13:00 +15°C° 0 mm 4 m/S 758 mmHg 40%
    14:00 +15°C° 0 mm 4 m/S 757 mmHg 41%
    15:00 +16°C° 0 mm 3 m/S 756 mmHg 42%
    16:00 +16°C° 0 mm 3 m/S 756 mmHg 44%
    17:00 +14°C° 0 mm 3 m/S 756 mmHg 48%
    18:00 +13°C° 0 mm 2 m/S 756 mmHg 52%
    19:00 +10°C° 0 mm 2 m/S 756 mmHg 57%
    20:00 +10°C° 0 mm 2 m/S 756 mmHg 57%
    21:00 +10°C° 0 mm 2 m/S 756 mmHg 57%
    22:00 +10°C° 0 mm 3 m/S 756 mmHg 57%
    23:00 +10°C° 0 mm 3 m/S 756 mmHg 57%

    27 September, Donnerstag

    Zeit Temperatur Niederschläge Wind Luftdruck Luftfeuchtigkeit
    00:00 +10°C° 0 mm 3 m/S 756 mmHg 57%
    01:00 +10°C° 0 mm 3 m/S 755 mmHg 58%
    02:00 +9°C° 0 mm 3 m/S 755 mmHg 57%
    03:00 +9°C° 0 mm 3 m/S 755 mmHg 57%
    04:00 +9°C° 0 mm 3 m/S 755 mmHg 57%
    05:00 +10°C° 0 mm 3 m/S 755 mmHg 57%
    06:00 +10°C° 0 mm 3 m/S 755 mmHg 57%
    07:00 +10°C° 0 mm 3 m/S 755 mmHg 56%
    08:00 +12°C° 0 mm 3 m/S 755 mmHg 53%
    09:00 +14°C° 0 mm 3 m/S 755 mmHg 49%
    10:00 +17°C° 0 mm 3 m/S 755 mmHg 45%
    11:00 +19°C° 0 mm 3 m/S 754 mmHg 45%
    12:00 +20°C° 0 mm 3 m/S 754 mmHg 44%
    13:00 +21°C° 0 mm 3 m/S 754 mmHg 43%
    14:00 +21°C° 0 mm 3 m/S 753 mmHg 45%
    15:00 +21°C° 0 mm 3 m/S 753 mmHg 47%
    16:00 +21°C° 0 mm 2 m/S 752 mmHg 49%
    17:00 +19°C° 0 mm 2 m/S 752 mmHg 53%
    18:00 +17°C° 0 mm 2 m/S 752 mmHg 58%
    19:00 +15°C° 0 mm 1 m/S 751 mmHg 63%
    20:00 +15°C° 0 mm 2 m/S 751 mmHg 62%
    21:00 +14°C° 0 mm 2 m/S 751 mmHg 62%
    22:00 +14°C° 0 mm 2 m/S 751 mmHg 62%
    23:00 +13°C° 0 mm 2 m/S 751 mmHg 63%

    28 September, Freitag

    Zeit Temperatur Niederschläge Wind Luftdruck Luftfeuchtigkeit
    00:00 +13°C° 0 mm 2 m/S 750 mmHg 63%
    01:00 +12°C° 0 mm 2 m/S 750 mmHg 63%
    02:00 +12°C° 0 mm 2 m/S 749 mmHg 65%
    03:00 +12°C° 0 mm 2 m/S 749 mmHg 66%
    04:00 +10°C° 0 mm 2 m/S 749 mmHg 67%
    05:00 +10°C° 0 mm 2 m/S 749 mmHg 67%
    06:00 +10°C° 0 mm 2 m/S 749 mmHg 67%
    07:00 +12°C° 0 mm 2 m/S 749 mmHg 67%
    08:00 +14°C° 0 mm 2 m/S 749 mmHg 62%
    09:00 +16°C° 0 mm 2 m/S 749 mmHg 57%
    10:00 +18°C° 0 mm 2 m/S 749 mmHg 51%
    11:00 +19°C° 0 mm 2 m/S 749 mmHg 50%
    12:00 +20°C° 0 mm 2 m/S 748 mmHg 48%
    13:00 +21°C° 0 mm 2 m/S 748 mmHg 47%
    14:00 +20°C° 0 mm 2 m/S 748 mmHg 49%
    15:00 +20°C° 0 mm 2 m/S 748 mmHg 51%
    16:00 +20°C° 0 mm 2 m/S 747 mmHg 53%
    17:00 +18°C° 0 mm 2 m/S 747 mmHg 61%
    18:00 +16°C° 0 mm 2 m/S 748 mmHg 68%
    19:00 +14°C° 0 mm 2 m/S 748 mmHg 76%
    20:00 +14°C° 0 mm 2 m/S 748 mmHg 78%
    21:00 +13°C° 0 mm 2 m/S 748 mmHg 81%
    22:00 +13°C° 0 mm 2 m/S 748 mmHg 83%
    23:00 +13°C° 0 mm 2 m/S 749 mmHg 84%

    29 September, Samstag

    Zeit Temperatur Niederschläge Wind Luftdruck Luftfeuchtigkeit
    00:00 +12°C° 0 mm 2 m/S 749 mmHg 85%
    01:00 +12°C° 0 mm 2 m/S 749 mmHg 87%
    02:00 +10°C° 0 mm 2 m/S 749 mmHg 87%
    03:00 +10°C° 0 mm 2 m/S 749 mmHg 87%
    04:00 +10°C° 0 mm 2 m/S 749 mmHg 87%
    05:00 +9°C° 0 mm 2 m/S 750 mmHg 87%
    06:00 +9°C° 0 mm 2 m/S 750 mmHg 87%
    07:00 +8°C° 0 mm 2 m/S 751 mmHg 87%
    08:00 +10°C° 0 mm 2 m/S 751 mmHg 78%
    09:00 +11°C° 0 mm 3 m/S 752 mmHg 68%
    10:00 +13°C° 0 mm 3 m/S 752 mmHg 59%
    11:00 +13°C° 0 mm 3 m/S 752 mmHg 54%
    12:00 +14°C° 0 mm 3 m/S 752 mmHg 48%
    13:00 +16°C° 0 mm 3 m/S 752 mmHg 43%
    14:00 +16°C° 0 mm 3 m/S 752 mmHg 44%
    15:00 +16°C° 0 mm 2 m/S 751 mmHg 44%
    16:00 +15°C° 0 mm 2 m/S 751 mmHg 45%
    17:00 +14°C° 0 mm 2 m/S 751 mmHg 51%
    18:00 +12°C° 0 mm 2 m/S 752 mmHg 57%
    19:00 +9°C° 0 mm 2 m/S 752 mmHg 63%
    20:00 +9°C° 0 mm 2 m/S 752 mmHg 65%
    21:00 +8°C° 0 mm 2 m/S 752 mmHg 68%
    22:00 +8°C° 0 mm 2 m/S 752 mmHg 70%
    23:00 +8°C° 0 mm 1 m/S 752 mmHg 72%
    Mehr zeigen